Wind_Speed
75 72 70 70 71 72 74 76 77 79 81 83 84 86 88 90 92 93 94 94 93 92 90 86 80 73 67 63 58 51 45 41 38 35 31 27 23 17 14 13 9 4 3 7 11 15 20 25 31 36 42 46 51 55 60 62 66 70 74 77 79 80 80 80 81 82 83 84 85 86 86 85 82 80 77 74 70 66 63 62 61 59 56 53 50 47 45
75 73 70 69 70 71 73 75 76 78 79 82 84 85 86 88 90 92 93 93 92 91 90 87 82 75 68 64 61 56 49 43 39 34 31 28 24 18 14 13 11 7 5 7 10 15 20 24 28 33 39 44 49 54 58 61 64 69 72 74 76 77 79 80 82 83 83 84 85 85 83 81 78 76 74 71 67 66 65 64 62 59 54 52 49 46 45
75 74 71 69 69 70 71 73 75 76 77 79 82 84 86 87 89 91 92 92 91 90 89 87 83 77 71 65 62 58 53 48 42 36 32 28 23 18 14 13 12 9 7 8 11 14 19 24 27 31 36 41 46 52 56 61 65 69 72 74 76 78 80 81 82 81 81 80 79 77 74 72 71 71 70 67 65 65 65 63 61 56 53 52 48 44 44
75 74 72 70 69 69 70 71 73 74 75 77 79 81 84 87 89 90 91 90 90 89 88 87 84 79 72 66 61 57 54 51 46 40 34 29 23 18 15 13 12 10 7 9 13 15 19 22 26 31 35 40 45 51 57 62 67 70 73 74 76 77 77 78 78 77 76 75 74 73 72 70 69 68 66 65 65 65 64 63 59 55 53 51 47 44 44
75 74 73 71 69 68 69 70 71 73 74 75 77 78 81 84 87 89 89 89 88 87 86 85 83 79 73 67 61 57 54 52 49 42 35 30 24 20 16 12 11 11 6 9 15 18 21 24 28 33 38 42 47 53 60 65 68 70 71 72 73 73 73 74 74 74 74 75 75 75 74 72 69 68 66 65 65 65 63 61 58 56 54 50 47 44 43
74 74 73 72 70 68 67 68 70 71 73 74 76 77 78 80 83 85 87 87 86 85 84 82 81 79 74 68 62 58 55 53 50 44 37 31 25 20 15 11 11 11 7 8 13 18 22 26 29 33 37 42 47 54 60 64 66 68 69 70 71 71 71 72 73 73 73 73 73 71 70 69 69 68 67 65 64 63 60 58 57 56 53 50 47 45 42
73 73 73 72 71 68 67 67 68 70 72 73 75 77 78 79 81 83 85 86 85 83 81 80 79 77 74 68 62 58 55 52 50 47 41 33 26 20 14 10 10 11 8 8 12 16 21 25 29 32 35 39 45 50 54 57 61 64 66 68 69 70 71 71 71 71 71 71 70 69 67 67 67 66 65 64 63 62 60 58 58 56 53 50 47 45 43
72 72 72 72 71 69 67 66 67 68 70 71 73 75 77 79 81 83 84 84 83 81 79 77 76 75 73 67 61 56 53 51 50 48 43 36 28 20 13 9 9 11 9 10 12 15 20 24 28 31 33 36 41 45 48 51 55 59 62 65 68 70 71 69 69 69 69 68 69 68 67 66 65 64 63 62 62 61 60 59 57 55 52 49 46 43 42
71 71 71 71 71 70 68 66 66 67 68 70 71 73 75 77 80 82 82 82 81 79 77 75 74 73 71 67 61 56 52 49 48 47 44 39 32 23 15 10 9 10 10 11 13 16 21 26 29 32 33 34 37 42 46 50 53 57 60 63 67 69 70 69 69 69 69 68 68 67 66 66 65 64 62 61 60 59 59 57 56 53 51 48 44 41 40
70 70 70 70 70 70 69 67 66 66 67 68 70 71 73 74 76 78 80 80 79 77 74 72 71 70 69 66 61 55 50 47 44 43 42 40 34 27 19 12 8 7 9 11 12 15 21 26 30 33 36 38 40 43 46 49 51 55 59 63 67 68 69 69 69 69 68 68 67 67 67 66 64 61 60 59 59 58 58 57 55 53 50 47 44 41 40
69 70 69 70 70 70 69 68 66 66 66 67 69 71 72 73 75 77 79 79 77 75 72 70 69 67 66 64 59 53 49 45 42 41 39 37 33 27 20 13 8 6 8 10 11 13 18 23 28 32 36 39 42 45 47 50 52 55 59 63 66 67 67 68 68 68 68 68 68 68 67 64 61 59 58 58 58 58 57 56 55 53 50 47 44 42 42
69 69 69 69 70 70 70 69 67 66 66 66 68 70 71 73 74 77 78 78 76 73 69 67 65 64 63 62 58 53 48 44 41 39 37 35 31 26 20 14 9 7 8 10 10 11 16 20 24 29 33 37 41 45 48 52 55 57 60 63 65 66 67 68 68 68 68 68 69 67 65 62 60 59 58 58 57 57 57 56 54 51 49 47 45 44 44
68 68 68 68 70 71 70 69 67 66 65 65 66 68 70 72 74 76 77 77 75 71 67 64 62 61 61 60 57 52 46 42 39 37 36 34 30 25 20 14 9 6 8 11 12 11 13 18 22 26 30 34 39 44 48 52 55 58 60 62 64 65 67 68 68 68 68 68 67 65 63 61 60 59 58 57 56 56 56 55 53 50 48 47 46 45 44
68 68 67 68 69 71 71 69 67 66 66 65 65 67 69 72 74 75 76 76 73 69 64 61 59 58 58 57 55 51 45 41 38 36 34 33 30 26 20 15 10 6 5 9 13 13 12 15 19 23 27 31 36 41 45 50 53 57 59 62 63 64 66 67 68 69 69 67 66 64 63 62 61 60 58 57 56 56 56 54 52 50 48 47 46 45 44
69 67 66 67 69 71 72 70 67 66 66 65 65 66 68 71 73 75 76 75 72 68 62 58 55 55 54 54 54 49 44 39 36 33 32 31 29 26 22 16 11 6 4 7 12 16 14 13 15 19 23 28 33 38 43 47 51 55 58 60 62 64 65 66 67 68 68 66 65 64 63 63 62 59 57 56 57 57 56 54 52 50 48 47 46 45 45
69 67 65 66 68 71 72 70 67 65 65 66 66 65 67 70 73 75 76 75 71 66 60 55 52 51 51 51 51 48 43 37 34 31 29 28 27 25 22 18 12 6 5 5 10 16 18 16 15 17 21 24 29 34 39 44 48 51 55 57 59 61 63 64 66 67 66 65 65 64 63 62 61 59 58 57 58 57 56 54 53 51 49 47 46 47 46
69 66 65 66 69 71 72 70 67 64 64 66 67 67 66 69 72 75 75 74 71 65 59 53 49 48 48 48 48 47 42 36 32 29 26 25 24 23 21 18 13 7 4 5 7 13 19 20 18 18 20 23 26 30 35 40 44 48 51 54 56 58 61 63 65 66 66 65 64 63 62 61 60 59 58 58 58 57 55 54 53 51 50 48 47 47 47
68 66 66 68 71 73 73 71 67 64 64 65 68 69 69 69 72 74 75 73 70 64 57 51 46 45 45 45 45 44 41 35 30 27 25 22 21 20 19 17 14 9 3 5 7 10 15 19 20 19 20 21 24 27 31 35 40 44 47 51 54 57 60 62 64 65 65 64 63 63 62 61 60 59 58 58 57 56 54 54 53 53 52 50 48 48 47
68 67 68 70 73 74 74 72 67 64 64 66 68 70 71 72 72 74 74 72 69 63 55 48 44 42 42 42 42 41 40 35 28 25 23 21 18 18 17 15 13 11 6 1 6 9 12 16 20 22 22 21 21 23 26 30 35 40 44 47 50 54 57 60 63 64 63 63 63 62 62 62 61 60 59 58 56 55 54 54 54 54 53 51 50 49 48
69 69 71 73 75 76 75 73 68 65 65 67 69 71 73 75 75 74 73 70 66 61 54 46 41 39 39 40 39 38 37 34 28 23 21 20 17 15 15 14 12 11 9 5 3 8 10 13 18 22 23 23 22 22 22 25 29 35 40 44 47 50 54 58 61 62 63 63 63 62 62 62 61 61 59 58 57 57 55 55 55 54 54 52 51 50 49
72 73 74 76 77 78 77 74 69 67 67 70 72 73 75 77 77 76 74 69 64 59 53 44 39 37 37 37 37 36 35 33 28 22 19 18 17 14 13 12 12 10 10 9 6 6 9 12 15 18 21 23 24 24 23 23 24 28 33 38 43 47 51 55 58 60 62 63 63 63 62 62 62 61 60 59 59 59 57 56 56 55 54 53 52 51 50
75 76 78 79 79 79 78 75 71 69 70 72 75 76 77 78 79 77 74 69 62 56 50 43 37 35 34 35 35 34 33 32 29 23 17 15 16 15 13 12 12 11 10 9 8 7 8 11 13 15 18 20 22 24 26 26 26 26 28 32 37 43 47 51 55 58 60 62 63 63 63 62 62 62 61 61 61 61 60 59 57 56 55 54 54 53 51
79 80 81 81 81 81 79 76 73 72 72 75 78 79 80 80 80 77 74 69 61 53 47 42 37 33 32 33 33 33 31 29 28 24 18 14 13 15 14 13 12 12 11 10 10 9 9 10 12 14 15 17 19 22 25 26 28 29 30 31 34 38 44 48 52 55 58 61 62 62 62 63 63 63 62 62 62 61 60 59 58 57 55 54 54 53 52
81 82 83 83 83 82 79 76 75 75 75 77 80 82 83 82 81 77 72 67 61 52 44 39 36 32 30 31 31 31 30 28 26 25 20 14 11 12 15 15 14 13 13 12 11 11 11 11 13 14 15 16 18 20 21 23 25 27 29 31 33 36 40 45 50 53 56 59 61 62 63 63 63 63 63 63 62 61 60 60 59 57 56 55 55 54 52
84 85 85 85 85 83 80 77 77 78 78 80 82 84 85 83 81 77 71 65 59 52 42 36 34 31 30 30 31 30 29 27 25 23 21 16 12 10 12 15 16 15 15 14 13 13 13 12 13 15 16 17 18 19 21 23 24 25 27 30 32 34 37 41 46 51 55 58 61 62 63 64 64 63 62 63 63 62 60 59 58 57 56 56 55 54 52
88 87 87 87 85 83 80 79 79 81 82 82 84 86 86 84 80 76 70 63 57 50 42 35 32 30 29 29 31 30 28 27 24 22 20 17 13 10 11 14 17 18 17 17 16 15 15 14 14 15 17 18 19 19 21 23 25 26 27 28 30 33 35 38 42 47 52 56 60 62 63 64 64 64 63 63 63 62 61 60 59 58 57 56 56 54 53
91 90 89 87 85 82 81 81 82 84 85 85 86 87 87 84 80 74 69 62 55 49 42 35 31 29 28 28 30 31 28 26 24 21 19 17 15 13 12 13 16 19 20 20 19 18 18 17 17 17 18 19 20 20 20 21 24 26 27 28 29 31 32 34 37 41 46 52 57 61 62 64 65 65 65 64 64 63 62 61 60 59 58 57 56 54 53
93 91 89 87 84 83 82 84 85 86 87 88 89 88 86 83 78 72 66 60 53 47 43 37 32 29 28 28 29 31 30 27 24 21 19 17 16 14 14 14 16 19 21 23 23 22 21 21 20 19 18 19 20 21 21 21 22 24 25 26 26 27 28 30 32 36 39 44 49 54 58 61 63 64 64 64 64 63 62 61 60 59 58 57 55 54 53
94 91 89 86 85 84 85 86 88 89 90 91 90 89 85 81 76 69 63 57 51 46 43 39 34 31 29 29 29 30 31 28 24 22 20 18 16 15 15 16 17 19 22 24 26 25 24 24 23 22 20 19 20 20 21 22 22 22 23 24 24 25 25 27 30 32 35 38 41 45 50 55 58 61 62 63 63 62 61 59 58 57 56 55 54 54 53
93 90 88 87 87 87 88 89 91 92 92 92 91 88 84 79 72 65 59 53 48 44 41 40 37 33 30 29 29 29 30 29 26 23 22 20 18 16 16 17 19 21 23 25 26 27 28 27 25 25 23 22 21 21 21 22 23 23 23 23 24 25 25 26 28 31 33 35 37 40 43 47 50 54 57 59 59 59 58 57 56 55 54 54 54 54 54
91 89 88 89 90 91 91 92 93 94 94 92 90 87 82 75 68 61 55 50 45 42 39 39 38 35 31 29 29 28 29 29 28 25 24 22 20 18 17 18 19 22 24 26 27 29 31 30 28 27 26 25 24 23 23 23 24 25 24 24 25 25 26 28 29 30 31 33 35 37 38 39 41 44 48 50 52 53 53 54 54 54 54 54 54 54 54
90 90 91 92 93 94 95 95 96 97 95 92 88 84 78 71 64 58 52 47 43 40 38 37 37 36 32 29 28 29 29 29 29 29 27 24 21 20 19 19 20 22 25 27 29 31 32 32 32 30 29 28 27 27 26 26 26 26 26 26 26 26 27 29 30 30 31 31 32 34 35 35 36 38 40 42 44 47 49 50 52 52 53 53 53 53 53
92 93 94 96 96 97 97 98 99 98 96 92 87 81 74 67 60 54 50 46 42 40 37 36 36 36 34 31 28 29 30 29 30 31 30 27 24 22 21 21 22 24 26 28 31 32 32 34 35 34 32 32 31 30 30 29 28 28 28 29 29 29 29 30 30 31 31 32 33 33 33 34 35 37 38 40 42 44 45 47 48 49 50 50 50 51 51
95 97 98 99 99 100 100 100 100 98 94 89 84 78 70 63 57 51 47 44 41 39 38 36 36 36 36 33 30 30 32 32 32 33 32 30 27 25 23 22 24 26 27 28 31 33 34 35 36 36 36 35 35 34 33 32 31 31 31 31 32 32 32 32 32 32 33 34 34 34 34 35 36 37 38 39 41 42 43 44 45 46 47 48 48 49 50
98 99 100 101 102 102 102 101 99 96 91 86 80 73 67 61 55 50 46 43 41 39 38 37 36 36 37 36 33 33 34 35 34 34 33 31 30 27 24 24 26 27 28 29 31 34 35 35 36 38 39 39 38 38 37 36 35 35 35 35 35 34 34 33 33 34 34 35 36 36 37 37 38 38 39 40 41 42 43 44 44 45 46 47 48 49 49
101 101 102 103 103 103 102 100 96 92 88 82 76 70 64 58 53 50 47 44 42 40 39 39 38 37 37 38 38 37 37 37 36 36 35 33 32 30 27 26 28 29 29 30 32 35 36 37 38 39 41 42 42 41 39 38 39 39 39 39 38 36 35 35 36 36 37 37 38 38 39 39 39 40 40 41 42 43 44 44 45 46 46 47 48 48 49
102 103 103 104 103 102 100 97 93 89 83 78 72 67 61 56 53 50 48 46 44 43 41 41 41 39 39 42 42 40 39 39 38 37 37 34 33 32 30 28 28 30 31 32 33 34 36 38 39 41 42 44 44 42 41 41 42 42 41 41 40 39 39 39 39 39 39 39 39 40 40 40 40 41 41 42 43 44 45 45 46 46 47 47 48 49 49
103 103 104 103 102 99 96 93 89 84 79 74 69 64 59 56 53 51 50 48 47 46 44 44 44 42 42 45 45 42 41 41 40 38 38 36 34 33 33 30 29 31 33 33 32 33 36 39 41 43 44 45 44 43 44 45 45 44 44 43 43 42 42 42 42 42 42 42 42 42 42 41 42 42 43 44 44 45 45 46 46 47 47 48 49 49 49
103 103 102 101 99 96 92 88 85 80 75 70 66 62 59 57 54 52 51 50 49 48 47 47 46 44 45 46 45 41 41 42 40 38 38 37 34 34 34 31 30 32 34 33 32 33 36 39 42 43 44 44 44 45 47 48 47 47 47 46 45 44 44 44 44 45 45 45 45 45 45 44 44 44 45 45 46 46 46 46 47 48 49 49 50 50 51
101 101 100 98 95 91 87 83 79 76 72 68 65 62 59 57 55 53 52 51 50 49 48 48 46 45 44 45 43 40 40 41 40 37 37 37 35 35 35 33 31 32 34 33 33 34 36 38 41 43 45 45 45 47 49 50 50 50 49 47 46 46 46 46 46 47 47 47 47 47 47 47 47 47 47 47 47 47 47 47 48 49 50 50 51 52 52
99 97 96 93 90 87 83 79 75 72 68 66 63 61 59 57 55 54 53 52 51 49 48 47 45 43 43 42 40 37 38 40 38 36 37 37 36 36 36 34 32 32 33 33 33 34 35 37 40 43 45 46 47 49 51 52 52 51 50 49 48 48 48 48 48 49 49 49 49 48 48 48 48 49 49 49 48 48 48 48 49 50 50 51 51 52 52
95 93 91 89 85 82 78 74 71 68 66 64 62 60 58 57 55 54 52 51 50 49 47 45 44 42 41 40 38 36 37 38 37 36 36 37 36 36 34 32 32 33 33 32 32 33 34 37 40 42 43 46 48 50 50 51 51 51 51 51 51 51 50 50 50 50 49 49 49 49 49 49 49 49 49 49 49 49 49 50 50 50 50 51 52 52 53
91 88 86 83 80 77 74 71 68 66 64 62 61 60 58 56 55 53 51 49 48 47 45 43 42 40 39 38 36 35 35 37 36 35 36 36 36 35 32 32 34 34 32 31 32 34 35 38 40 40 41 44 48 49 50 49 49 50 51 52 53 53 52 52 51 51 51 50 50 51 51 51 51 50 50 50 50 50 50 51 51 51 52 52 53 53 54
85 83 80 78 75 73 70 67 65 64 63 62 60 59 57 55 53 51 49 48 47 45 43 41 40 38 37 36 35 34 34 35 35 34 35 36 35 33 32 33 35 35 33 33 34 35 36 38 39 40 41 43 46 47 48 49 48 48 49 51 52 53 53 54 54 53 53 53 53 53 53 53 53 53 53 52 52 52 52 53 53 53 53 54 54 55 56
80 78 75 73 71 69 67 65 64 63 62 61 59 57 55 52 50 48 46 46 45 43 41 39 38 36 35 34 33 33 33 33 33 32 34 34 33 32 33 35 36 35 35 35 35 35 36 38 39 39 40 41 42 43 45 46 47 48 48 49 50 51 52 53 54 54 55 55 55 56 56 55 55 55 55 55 55 55 55 55 55 55 55 55 56 57 58
75 73 71 69 67 66 64 63 62 61 59 58 55 53 50 48 46 45 44 43 42 40 39 38 36 34 33 32 32 31 31 31 31 32 33 33 32 33 34 35 35 36 37 37 36 36 37 37 37 37 38 38 39 40 41 43 44 46 48 49 50 50 50 51 52 53 54 55 55 56 56 56 56 56 56 56 56 57 57 57 57 57 58 58 59 59 60
70 68 66 65 64 63 62 61 59 57 54 53 50 48 47 45 44 43 42 41 40 38 37 36 34 32 31 30 30 29 29 30 30 31 32 32 33 34 34 34 34 36 38 38 37 37 36 36 36 36 36 37 37 38 39 40 42 44 46 48 49 50 50 50 51 51 52 52 53 54 55 55 55 55 56 56 56 57 57 58 58 59 59 59 59 60 60
65 63 62 61 60 60 59 58 55 52 50 49 47 45 44 43 42 41 40 39 38 37 35 34 32 31 29 28 28 28 28 29 30 31 32 32 32 32 32 33 35 38 39 39 37 36 35 35 36 36 36 36 36 36 37 38 40 41 43 45 47 48 49 50 50 50 51 51 51 52 52 52 53 53 53 54 54 55 55 56 57 57 57 58 58 58 58
61 59 59 58 58 57 56 54 51 48 47 46 45 43 42 41 40 39 38 37 36 35 34 32 31 30 29 28 28 28 27 28 29 30 30 30 30 30 32 34 37 39 39 38 36 34 35 36 36 36 35 35 35 35 36 36 37 38 40 42 44 45 47 48 49 50 51 51 51 51 51 51 51 51 51 51 52 52 53 53 54 55 55 55 55 55 55
57 57 56 55 55 54 53 50 48 46 45 45 44 42 40 39 38 37 36 35 35 34 33 32 31 29 28 28 28 27 27 27 28 28 28 28 29 30 33 35 37 38 37 35 34 35 36 37 37 36 35 34 34 34 34 34 35 36 37 38 39 41 43 44 46 47 49 49 50 51 51 51 52 52 52 52 51 52 52 53 53 53 53 53 53 53 54
55 55 54 53 53 52 50 48 47 46 44 44 43 41 39 38 37 36 35 35 34 33 32 32 30 29 28 28 26 26 25 26 26 27 28 28 29 31 34 35 36 35 35 34 35 37 38 38 37 36 35 33 33 33 33 33 33 33 34 35 35 37 38 39 40 42 43 44 45 46 47 49 50 51 52 52 53 53 54 54 54 54 54 54 54 54 55
53 53 52 51 50 50 48 46 46 45 44 43 42 40 38 38 37 35 35 35 34 33 32 31 30 28 27 25 24 23 24 24 25 27 28 28 30 32 33 34 35 35 35 36 37 39 39 38 37 35 33 32 32 32 32 32 32 32 33 33 33 34 35 35 36 37 37 38 39 40 41 42 43 44 46 48 49 51 53 55 55 56 56 57 57 57 57
Wind_Direction
353 354 353 353 354 354 354 355 356 357 358 358 359 1 2 2 2 2 3 4 4 5 6 6 7 7 8 8 8 10 11 10 8 7 7 9 9 11 24 33 31 43 122 155 164 168 173 180 183 184 186 188 189 190 189 189 191 192 193 194 195 197 199 200 202 205 205 206 207 208 208 209 210 211 212 212 211 212 214 215 218 219 221 223 222 221 222
352 352 352 352 353 354 354 354 355 356 357 358 358 359 0 1 1 1 2 3 3 4 5 5 6 6 7 8 7 7 10 12 10 8 7 8 7 9 23 37 40 54 95 134 153 161 168 175 182 185 186 187 187 188 187 186 189 192 192 193 195 196 198 199 201 203 205 206 207 208 209 209 210 211 213 213 212 212 212 214 216 217 219 222 223 222 222
350 351 351 351 351 352 353 354 354 355 356 357 358 358 358 359 360 1 1 2 2 3 4 4 5 6 6 7 8 7 8 10 10 9 9 10 8 8 23 39 46 58 88 122 141 155 164 170 177 182 184 185 186 186 185 184 187 191 192 193 194 195 197 199 201 203 204 206 208 209 211 211 212 213 214 214 214 214 214 214 215 215 217 221 222 222 222
349 350 350 350 350 350 352 353 353 354 355 356 357 357 357 358 359 360 0 1 1 2 3 3 4 5 5 6 8 8 8 9 10 8 8 9 9 13 25 39 51 60 87 124 136 148 159 165 172 176 179 183 185 185 183 184 187 190 191 192 194 195 196 198 200 202 203 205 207 208 209 211 213 215 215 215 215 215 215 215 215 214 216 220 221 221 221
347 348 349 349 349 349 350 351 352 353 354 354 356 356 357 358 358 358 359 360 0 1 2 2 3 4 4 5 7 9 10 10 9 9 8 5 7 14 22 35 56 63 83 132 139 147 155 161 168 173 177 181 184 184 184 185 188 191 191 192 193 195 196 197 199 201 202 204 206 207 207 207 210 213 215 215 215 215 216 216 215 214 216 218 219 220 220
346 347 348 348 348 348 349 350 351 351 352 353 354 355 356 357 357 357 357 358 359 360 0 1 2 3 4 4 5 7 11 11 9 9 10 7 5 11 15 28 59 69 83 129 141 150 156 161 167 174 178 181 184 187 188 188 189 190 191 192 192 193 195 197 199 201 202 204 206 208 207 207 208 210 212 214 214 215 216 216 216 216 217 217 218 218 217
344 346 347 347 347 347 348 349 350 350 351 351 352 353 354 355 356 357 357 357 358 359 359 360 1 2 3 4 4 6 9 10 9 9 10 9 6 6 10 25 61 77 89 118 138 151 157 161 166 172 178 182 185 189 193 192 190 190 190 191 191 192 195 197 199 201 202 204 205 207 208 209 209 210 211 212 212 213 214 215 217 217 218 218 218 217 215
343 344 346 346 346 346 346 347 348 349 349 350 351 352 353 353 354 356 356 356 356 357 358 359 360 1 1 2 4 5 7 9 9 7 7 9 8 5 9 29 65 83 97 118 137 152 158 161 165 169 175 182 186 189 192 193 191 190 190 191 191 192 194 196 198 201 203 204 205 206 207 209 210 211 211 212 212 212 212 214 216 218 219 220 220 217 216
342 343 344 345 345 345 344 345 346 347 348 349 349 350 351 352 353 354 355 355 355 356 357 358 358 360 0 1 3 5 6 8 10 7 4 6 7 7 12 32 68 92 110 127 143 157 162 163 166 167 170 178 184 187 189 191 191 190 190 191 192 194 194 195 198 200 202 204 206 207 207 208 210 210 210 211 212 212 213 213 215 218 219 222 220 217 217
340 341 343 344 344 344 343 343 344 345 346 347 348 349 350 351 351 352 353 354 354 354 355 356 357 359 359 360 1 3 4 6 10 9 4 2 3 5 10 22 55 97 121 133 147 162 167 168 169 168 168 173 179 183 186 189 190 190 190 192 194 195 194 194 197 200 202 204 206 207 208 208 209 210 210 211 211 213 214 214 215 217 219 221 220 217 216
338 339 341 343 344 343 342 341 342 343 344 345 346 347 348 349 350 351 351 352 353 353 354 355 356 357 358 359 359 1 3 5 7 10 8 3 360 2 6 12 30 74 108 125 144 164 172 173 173 171 171 173 176 180 183 185 187 190 192 194 195 195 194 195 197 199 202 204 205 207 208 208 208 209 211 211 211 212 214 215 216 217 219 219 219 217 216
336 337 339 342 343 342 341 340 340 340 342 343 345 345 346 347 348 349 350 351 352 352 353 353 354 355 356 358 358 359 1 4 5 8 10 6 0 360 4 9 25 66 105 126 143 163 172 175 177 175 173 174 175 178 182 184 186 189 192 195 197 196 195 196 198 200 202 204 206 206 207 207 208 209 210 212 212 212 214 216 217 219 220 220 218 218 217
334 335 337 340 342 342 340 339 338 338 339 341 343 344 345 346 347 348 349 350 350 351 351 352 353 354 355 356 358 358 359 2 4 5 8 9 4 360 2 8 26 72 123 140 144 156 172 177 179 178 175 175 177 180 183 186 187 189 192 196 198 197 196 196 198 200 202 204 206 206 206 207 208 209 210 211 213 214 215 216 218 219 220 220 219 219 218
332 333 335 338 341 341 340 339 337 337 337 339 341 343 344 344 345 346 347 348 349 349 350 350 351 352 353 354 356 357 357 359 2 2 4 8 6 2 2 7 21 62 127 149 145 147 165 178 180 180 179 178 180 182 185 188 190 191 193 196 198 198 198 197 199 202 203 203 205 206 206 207 209 209 210 210 212 214 216 217 218 219 220 221 221 220 220
330 331 333 337 340 340 339 338 337 336 336 337 339 341 343 344 344 345 345 346 347 348 348 349 349 350 351 353 355 356 356 356 360 1 1 4 5 2 2 6 14 42 100 151 150 145 152 172 181 182 182 182 182 184 186 190 193 194 195 197 198 199 199 199 200 203 204 204 205 206 206 207 208 209 209 211 213 215 216 217 218 219 220 221 221 221 221
328 329 332 336 339 339 339 337 336 335 335 336 337 340 342 343 343 343 344 344 345 346 346 347 348 348 350 351 353 355 355 354 356 359 358 359 2 1 1 5 9 29 77 134 157 151 150 162 175 180 182 183 184 186 188 191 195 197 198 199 199 199 200 200 202 204 205 205 206 206 207 209 209 209 209 211 213 214 215 216 217 218 220 220 221 222 222
325 327 331 336 338 339 338 337 336 335 334 335 336 338 340 342 342 342 342 343 343 344 345 345 346 347 348 350 351 353 354 352 353 356 355 354 356 358 359 2 4 16 74 115 154 160 157 158 166 174 177 179 182 187 191 193 196 199 200 201 201 200 200 201 203 205 205 206 206 207 208 210 210 210 210 211 213 214 214 216 217 218 219 220 221 223 224
324 326 331 335 337 337 337 336 335 334 334 334 335 336 338 341 341 341 341 341 341 342 343 343 344 345 346 348 349 351 352 352 349 351 352 350 350 352 353 356 358 359 34 116 144 164 166 162 160 163 170 174 178 184 190 195 198 200 202 203 202 202 201 202 204 206 206 207 208 208 209 210 211 212 212 213 214 214 214 215 216 217 218 219 220 223 225
324 327 332 335 336 336 335 335 334 333 333 334 335 336 337 339 340 340 340 340 340 340 341 342 342 342 343 345 347 349 351 351 348 345 346 346 343 343 344 346 349 347 343 91 149 162 171 169 163 162 165 168 172 178 186 194 199 201 203 205 205 204 203 203 204 206 206 207 209 209 210 211 212 212 212 213 214 214 214 215 216 216 217 218 219 222 223
325 329 332 334 334 334 334 334 333 333 333 333 334 335 336 337 339 339 339 339 338 337 339 340 339 339 340 342 344 347 349 349 348 343 340 340 337 334 333 332 334 334 327 307 207 174 176 179 175 170 168 167 168 172 180 190 198 202 203 205 206 207 206 205 206 206 206 207 209 210 211 212 213 213 213 213 213 214 214 215 216 216 216 217 219 220 222
327 330 332 333 333 332 332 332 332 332 332 333 333 335 336 337 338 338 338 338 338 336 336 338 337 336 337 338 340 344 346 347 347 344 337 333 330 325 320 316 315 317 313 302 274 213 193 192 188 182 178 175 173 173 176 183 193 200 205 207 207 208 208 208 208 208 207 208 209 210 211 212 213 214 214 213 214 213 213 214 216 216 216 217 218 219 221
327 329 330 331 331 331 331 331 331 332 332 332 333 334 335 336 337 337 337 337 337 335 333 334 334 334 334 335 337 340 343 345 345 342 337 329 322 315 309 302 298 299 298 293 281 251 218 206 201 195 191 188 184 182 181 182 185 192 200 206 209 210 210 210 210 210 209 209 210 210 211 212 213 214 215 215 215 214 213 213 215 216 216 217 218 219 220
327 328 328 329 329 329 330 330 330 331 332 333 333 333 334 335 335 336 335 335 335 334 332 330 330 331 331 331 333 336 339 342 342 340 336 329 316 307 299 293 287 284 284 282 276 263 240 220 209 203 200 198 196 194 191 189 188 189 193 198 204 209 211 212 212 212 211 211 211 210 211 213 213 214 215 216 216 216 215 215 215 215 217 217 218 220 221
326 326 327 327 328 328 329 329 329 330 331 332 332 332 333 334 334 334 334 333 333 333 331 327 325 327 327 326 329 332 334 337 340 339 334 326 315 302 292 284 278 273 270 270 269 263 251 232 216 206 201 200 202 202 200 198 197 196 196 197 199 204 208 210 212 213 213 213 212 211 212 213 214 214 215 216 217 217 217 216 216 216 217 218 219 222 223
324 325 325 326 326 327 328 328 328 329 331 332 332 332 332 333 333 332 332 332 330 330 330 325 321 322 323 322 324 328 330 331 335 337 334 323 312 299 283 275 271 266 261 259 258 256 251 241 225 211 203 200 202 204 203 200 199 200 201 202 202 203 205 207 209 212 213 214 214 213 212 214 215 215 216 217 218 218 218 218 218 218 217 219 220 223 224
323 323 324 325 325 326 326 327 327 328 330 331 331 331 331 331 331 331 330 330 329 328 327 323 319 318 319 319 319 322 325 326 327 333 334 324 308 293 275 264 261 259 256 253 250 249 247 242 232 220 210 202 199 203 206 203 199 198 200 201 202 203 204 205 207 209 211 213 215 215 214 215 216 217 217 217 218 218 219 219 219 219 219 220 221 223 225
321 322 323 324 324 325 325 326 326 327 329 330 330 330 330 330 330 329 328 327 327 325 323 321 317 315 315 315 315 317 319 321 321 325 329 324 309 291 272 258 252 250 249 247 244 242 241 239 233 226 219 210 201 201 206 208 204 200 199 200 201 202 203 204 207 208 209 212 214 215 215 216 217 217 218 218 219 219 219 219 219 220 220 221 222 224 225
319 321 322 322 323 323 324 325 325 326 328 329 329 329 329 328 328 327 325 325 324 322 320 318 316 313 312 312 312 312 313 314 315 317 320 321 312 294 276 261 249 243 242 242 241 237 235 236 234 228 222 217 209 203 203 207 208 204 200 199 200 201 202 203 205 208 209 211 213 215 216 217 219 219 220 220 220 220 220 220 220 221 221 222 223 224 226
318 319 320 321 321 322 323 324 324 325 327 328 328 328 327 327 326 324 323 322 321 318 316 315 313 311 309 308 308 308 308 308 309 310 312 313 310 297 280 265 253 242 237 236 237 236 233 233 234 231 223 217 215 211 206 205 206 207 204 201 199 198 199 201 204 207 209 211 212 214 216 217 219 221 222 222 222 222 222 222 223 223 224 224 225 226 227
317 318 319 319 320 321 322 323 324 325 326 326 327 326 326 325 323 322 320 319 317 314 312 310 309 307 305 304 304 303 302 301 302 304 304 305 305 298 282 267 257 248 239 234 233 233 232 231 231 230 226 218 214 214 212 208 205 205 205 204 201 197 195 199 204 207 209 211 212 214 215 216 217 219 221 223 223 224 224 224 225 226 227 227 228 227 227
316 317 317 318 319 320 321 322 323 324 325 325 325 325 325 323 321 320 318 316 314 311 308 306 304 304 302 301 299 297 296 296 297 297 297 298 299 296 283 267 256 250 244 236 231 229 229 229 228 228 227 222 214 212 213 212 209 206 205 206 205 202 199 199 203 206 209 212 213 215 216 216 216 218 220 222 223 224 224 225 226 227 227 227 228 227 226
314 315 316 317 318 319 320 322 322 323 324 324 325 324 323 321 319 318 316 314 311 308 306 303 301 299 298 297 295 292 291 291 292 292 291 292 293 290 282 268 255 247 243 238 232 229 227 226 225 225 225 223 218 212 211 212 212 209 208 207 207 207 206 205 205 206 208 211 213 215 215 215 215 216 217 219 220 221 221 222 222 222 223 223 224 225 225
313 314 315 316 317 319 320 321 322 322 323 323 323 323 322 320 318 316 314 312 309 306 304 301 298 296 295 293 291 289 288 287 287 287 288 288 287 284 279 269 255 245 239 237 234 230 227 225 224 223 222 223 221 215 211 210 211 211 211 210 209 209 209 209 209 208 208 210 212 213 213 213 213 213 214 215 216 217 218 218 219 220 221 222 223 225 226
313 314 315 316 317 318 319 320 320 321 321 322 322 321 320 319 317 315 312 310 307 304 302 299 295 293 292 291 288 286 284 283 283 283 284 285 283 279 275 267 255 243 237 235 233 230 227 225 223 222 221 221 222 220 215 210 209 210 212 213 212 211 210 210 210 210 210 211 212 213 213 213 213 213 214 214 215 217 218 219 220 221 222 223 225 227 228
312 313 314 315 316 317 318 319 319 319 320 320 320 319 318 317 315 313 310 308 305 302 299 296 293 290 289 288 285 281 279 280 280 281 281 282 280 276 271 264 254 243 235 232 230 229 226 224 222 222 221 220 221 222 219 214 210 210 211 212 213 213 213 212 213 213 213 214 214 214 214 215 215 216 216 216 216 217 218 220 221 223 224 226 227 229 232
311 313 313 314 315 316 316 317 317 318 319 319 318 317 317 315 313 311 309 306 303 300 297 293 290 288 286 283 280 277 277 277 278 278 277 277 276 273 267 259 250 242 234 229 227 226 224 222 221 221 221 221 220 221 221 219 216 213 212 212 212 212 213 215 215 216 216 216 216 216 216 217 218 219 219 220 220 220 221 222 223 225 227 228 230 232 235
311 311 312 312 313 314 315 316 316 317 317 317 316 315 314 313 311 309 307 305 301 298 296 292 289 286 283 280 278 277 276 275 275 275 273 271 269 267 263 255 246 240 234 229 226 223 222 221 220 220 221 222 221 220 220 221 221 219 216 215 213 212 213 215 216 217 218 219 220 220 220 220 220 221 223 223 224 224 225 226 227 228 230 231 233 235 237
309 310 310 311 312 313 314 315 315 316 316 315 314 313 312 310 309 307 305 302 299 297 294 291 289 286 283 280 278 278 276 274 273 271 270 268 265 263 260 254 244 237 234 230 226 223 220 219 218 219 220 222 221 219 219 221 222 222 220 218 215 214 214 215 217 218 219 220 221 222 222 223 223 224 225 226 227 227 228 229 230 231 232 234 235 236 238
307 308 308 309 311 312 313 314 314 314 314 313 312 311 310 309 307 305 303 300 297 296 293 291 289 286 283 280 279 278 276 273 271 269 267 266 262 259 257 251 241 234 232 229 225 222 220 218 217 218 220 221 220 220 220 221 222 222 222 221 219 217 217 218 219 220 220 221 221 222 222 223 224 225 226 227 228 229 230 231 232 233 234 235 236 237 238
305 306 307 308 310 311 312 313 313 312 312 311 310 309 308 307 305 303 301 299 297 295 293 291 289 286 283 281 279 278 275 272 270 267 265 262 259 256 253 247 237 232 230 228 225 222 220 218 217 217 218 219 219 220 221 222 222 223 223 223 222 221 220 220 221 221 222 223 224 224 224 224 225 226 228 229 230 230 231 232 233 234 235 236 237 238 239
304 305 307 308 309 310 311 311 311 311 310 309 308 308 306 305 304 302 300 299 297 295 293 291 288 286 283 281 280 277 274 270 268 264 261 258 255 252 249 244 235 230 228 227 225 223 221 219 217 216 216 216 218 220 222 223 223 224 224 225 225 224 223 223 223 224 224 226 226 227 227 227 228 228 229 230 231 232 233 234 235 236 237 238 239 240 241
304 305 306 308 309 309 310 310 310 309 308 308 307 306 305 304 303 301 300 298 296 294 292 290 288 286 284 282 280 276 272 269 266 261 258 256 253 250 246 241 234 229 226 224 224 223 221 219 219 217 216 215 217 219 221 222 223 224 224 225 226 226 226 226 226 226 227 228 228 229 230 230 231 231 232 233 233 234 235 236 237 238 239 241 242 242 243
303 305 306 307 308 308 308 308 308 307 307 307 306 306 305 304 303 301 300 298 296 293 292 290 288 286 284 281 278 274 269 266 263 260 257 254 251 247 242 237 232 228 224 220 221 222 220 219 219 218 216 217 218 219 220 222 223 223 224 225 227 228 229 229 229 229 229 229 230 231 231 231 232 232 233 234 235 236 237 238 239 240 241 242 243 245 246
303 304 305 306 307 307 307 307 307 307 306 306 306 305 304 304 303 302 300 297 295 293 292 290 288 286 283 280 276 272 267 264 262 259 255 252 249 244 238 233 232 229 222 217 218 219 219 219 219 218 217 218 220 219 219 220 221 222 223 225 227 228 229 230 231 231 231 232 232 233 233 233 233 234 235 235 236 237 238 239 240 241 243 244 245 247 248
303 304 305 305 306 306 306 306 306 306 306 305 305 305 304 304 303 301 299 296 294 293 292 290 288 285 282 278 274 270 266 263 260 256 252 250 247 243 237 233 232 229 222 216 216 217 218 219 219 218 218 220 222 222 222 221 221 222 223 224 226 228 229 230 231 232 233 234 234 235 236 236 236 237 237 238 239 239 240 241 242 243 244 246 247 248 250
303 304 304 304 304 304 305 305 305 306 306 305 305 305 304 303 302 300 297 295 294 294 292 290 287 285 281 276 272 268 264 260 256 252 249 247 244 241 238 235 233 230 223 217 214 215 216 218 218 218 219 220 222 224 224 224 224 223 223 224 225 227 228 230 231 232 233 234 235 236 237 238 239 239 240 240 241 242 243 244 244 245 246 247 248 250 251
302 303 303 303 303 303 304 304 305 306 306 306 305 305 304 303 301 299 297 296 295 294 292 290 287 284 279 274 270 266 261 257 254 250 248 245 242 239 238 235 233 229 224 219 215 214 214 215 217 218 219 221 222 224 225 225 226 226 226 226 227 228 229 230 231 232 233 234 236 237 238 239 240 240 241 242 243 244 244 245 246 247 247 248 249 250 252
301 301 301 301 302 303 303 303 305 306 306 306 306 305 304 303 301 299 298 297 296 294 292 290 286 282 277 273 268 264 259 256 253 250 248 246 244 240 237 233 229 227 223 220 216 213 211 212 215 217 218 220 222 224 224 225 226 228 229 230 230 231 231 232 233 233 234 235 236 236 237 238 239 240 241 242 243 244 244 245 246 247 248 249 250 251 252
300 300 300 300 301 301 302 303 305 307 307 306 306 305 304 302 301 299 299 298 296 294 292 289 285 282 278 273 268 264 259 255 252 250 248 246 242 238 233 229 227 226 224 220 214 210 209 211 214 215 216 219 221 223 225 226 227 228 229 231 232 233 234 235 235 236 237 237 238 238 238 239 239 240 241 242 242 243 244 245 246 247 248 248 249 251 251
298 298 298 299 299 300 301 303 306 307 307 306 305 305 304 303 301 300 299 298 295 293 291 288 285 282 278 273 269 264 258 253 249 247 244 241 236 232 229 227 226 225 223 217 210 207 209 211 213 214 215 217 220 222 224 226 227 228 230 231 232 234 235 236 238 239 240 240 241 241 242 242 242 242 242 242 243 244 245 246 247 248 248 249 250 251 252
296 296 297 298 298 299 301 304 306 306 306 306 305 305 305 303 302 301 300 298 295 293 291 288 285 281 277 273 269 264 257 251 246 241 238 233 229 226 225 225 224 222 216 210 207 207 209 211 212 213 214 216 219 222 224 225 227 229 230 231 232 234 235 237 238 239 241 242 243 243 244 244 244 244 244 244 245 245 246 247 248 249 250 250 251 252 253
294 294 295 297 298 299 301 304 305 305 305 305 305 305 305 304 302 301 300 297 295 293 290 287 284 281 277 272 266 259 252 246 241 237 234 230 226 223 223 223 220 215 209 205 206 208 210 211 212 213 214 216 219 222 224 225 227 229 230 231 232 234 235 236 238 239 240 241 242 243 243 244 244 244 245 245 245 246 246 247 248 249 250 251 252 253 254
Height
10526 10519 10513 10506 10500 10494 10486 10479 10472 10464 10457 10450 10444 10438 10431 10422 10415 10407 10399 10390 10381 10373 10365 10357 10349 10342 10336 10330 10324 10318 10313 10308 10303 10299 10296 10293 10291 10289 10286 10285 10285 10285 10285 10286 10287 10288 10291 10295 10299 10303 10308 10314 10320 10326 10333 10342 10351 10358 10365 10372 10380 10391 10403 10414 10422 10428 10434 10441 10447 10453 10459 10468 10477 10486 10494 10503 10515 10525 10534 10539 10543 10548 10557 10565 10571 10578 10581
10525 10519 10513 10506 10500 10494 10488 10480 10473 10466 10459 10450 10443 10438 10434 10427 10419 10410 10401 10392 10385 10378 10369 10361 10353 10346 10340 10333 10327 10321 10315 10311 10306 10303 10300 10296 10294 10292 10290 10288 10288 10288 10288 10289 10290 10292 10294 10298 10303 10307 10311 10316 10322 10329 10336 10344 10352 10359 10366 10374 10383 10392 10401 10408 10413 10420 10428 10435 10441 10448 10458 10470 10481 10489 10497 10507 10517 10522 10526 10531 10536 10545 10555 10561 10568 10574 10577
10524 10518 10513 10507 10500 10495 10489 10482 10475 10469 10462 10455 10447 10438 10432 10428 10421 10413 10404 10396 10388 10380 10371 10364 10356 10349 10343 10337 10331 10324 10318 10313 10309 10306 10302 10300 10298 10296 10293 10291 10291 10291 10291 10292 10294 10296 10298 10301 10306 10311 10316 10322 10326 10332 10339 10346 10352 10357 10364 10371 10379 10386 10393 10401 10409 10419 10428 10438 10448 10460 10473 10483 10489 10494 10501 10510 10516 10520 10524 10529 10536 10545 10553 10559 10565 10571 10573
10524 10518 10512 10507 10501 10494 10489 10483 10477 10470 10464 10458 10452 10443 10434 10426 10419 10413 10406 10400 10392 10383 10375 10368 10360 10353 10347 10341 10336 10330 10323 10318 10313 10309 10305 10303 10302 10300 10297 10295 10294 10294 10295 10295 10296 10299 10302 10305 10310 10315 10320 10325 10330 10335 10340 10344 10348 10354 10360 10368 10376 10385 10394 10403 10413 10423 10433 10443 10453 10462 10471 10480 10488 10495 10502 10508 10513 10517 10521 10527 10535 10543 10549 10555 10562 10566 10569
10523 10517 10511 10506 10501 10495 10489 10483 10477 10471 10465 10459 10454 10448 10440 10430 10422 10415 10409 10403 10395 10387 10380 10373 10365 10358 10352 10346 10340 10335 10328 10322 10318 10314 10310 10308 10306 10303 10301 10300 10298 10298 10300 10300 10300 10302 10305 10308 10312 10317 10320 10325 10330 10334 10337 10341 10346 10353 10361 10370 10379 10389 10399 10408 10416 10424 10432 10440 10445 10452 10461 10472 10481 10489 10496 10502 10507 10512 10519 10527 10534 10539 10544 10551 10557 10561 10565
10523 10516 10510 10505 10500 10495 10489 10483 10477 10471 10465 10459 10454 10449 10443 10437 10429 10421 10413 10405 10398 10391 10383 10376 10369 10362 10356 10350 10344 10338 10332 10327 10323 10319 10316 10312 10310 10307 10306 10304 10303 10303 10304 10305 10305 10306 10308 10310 10314 10318 10322 10327 10332 10335 10337 10340 10347 10356 10364 10373 10382 10392 10401 10408 10415 10422 10430 10437 10445 10454 10463 10471 10476 10482 10489 10496 10503 10511 10519 10526 10532 10535 10541 10548 10552 10556 10561
10523 10516 10510 10504 10498 10494 10489 10484 10478 10471 10465 10459 10453 10447 10442 10437 10432 10425 10416 10408 10402 10395 10388 10381 10374 10367 10360 10354 10348 10342 10337 10332 10327 10323 10320 10318 10315 10312 10310 10308 10307 10307 10308 10309 10310 10312 10313 10315 10317 10322 10326 10331 10335 10339 10343 10348 10353 10361 10369 10377 10385 10393 10400 10408 10416 10423 10430 10437 10445 10454 10463 10470 10475 10480 10486 10492 10499 10507 10515 10521 10526 10532 10539 10543 10547 10553 10557
10523 10516 10509 10503 10497 10492 10488 10484 10478 10473 10467 10460 10454 10448 10441 10435 10429 10424 10417 10411 10405 10399 10392 10385 10377 10371 10364 10359 10353 10347 10342 10337 10331 10327 10324 10322 10320 10317 10315 10312 10311 10311 10312 10312 10314 10316 10318 10319 10322 10325 10330 10335 10340 10345 10352 10358 10363 10367 10374 10381 10387 10392 10399 10408 10416 10423 10430 10437 10444 10451 10459 10466 10473 10478 10484 10490 10497 10504 10511 10517 10523 10530 10536 10540 10545 10551 10554
10523 10516 10509 10503 10497 10491 10486 10482 10478 10473 10467 10462 10456 10450 10444 10437 10430 10425 10419 10414 10407 10401 10395 10388 10381 10374 10367 10361 10356 10351 10347 10342 10337 10333 10329 10326 10324 10322 10319 10317 10315 10315 10315 10315 10317 10319 10320 10322 10325 10327 10332 10339 10345 10351 10357 10363 10368 10372 10378 10384 10388 10392 10399 10407 10414 10421 10428 10435 10442 10448 10455 10461 10467 10474 10482 10489 10496 10503 10509 10515 10521 10527 10533 10537 10543 10548 10551
10522 10516 10510 10503 10497 10491 10485 10481 10477 10472 10467 10462 10456 10451 10446 10441 10435 10430 10424 10417 10410 10403 10397 10391 10384 10378 10371 10365 10360 10355 10351 10347 10343 10339 10334 10330 10328 10325 10323 10321 10319 10319 10319 10319 10320 10322 10324 10325 10327 10329 10332 10338 10344 10352 10359 10365 10371 10376 10380 10383 10387 10393 10400 10407 10413 10420 10426 10433 10439 10445 10450 10456 10465 10474 10482 10488 10495 10502 10507 10513 10518 10524 10529 10534 10540 10544 10547
10521 10515 10510 10504 10497 10491 10484 10479 10475 10471 10467 10461 10456 10451 10446 10441 10436 10431 10425 10419 10413 10406 10399 10393 10387 10381 10376 10370 10364 10360 10355 10350 10347 10344 10340 10336 10333 10330 10328 10326 10324 10324 10324 10324 10325 10327 10328 10330 10331 10333 10335 10339 10344 10350 10357 10364 10370 10375 10379 10383 10387 10393 10401 10408 10413 10419 10424 10429 10434 10440 10447 10456 10466 10474 10480 10486 10492 10498 10504 10510 10515 10521 10526 10531 10535 10539 10541
10519 10514 10509 10503 10497 10491 10484 10478 10474 10470 10466 10461 10456 10450 10445 10440 10435 10430 10425 10420 10414 10408 10402 10395 10389 10384 10378 10373 10367 10362 10358 10354 10350 10347 10345 10342 10338 10335 10332 10330 10329 10328 10328 10328 10329 10331 10333 10335 10337 10338 10340 10343 10347 10351 10357 10362 10367 10372 10377 10382 10387 10393 10400 10406 10411 10416 10421 10426 10431 10438 10447 10457 10464 10470 10476 10483 10489 10495 10500 10506 10512 10517 10523 10527 10530 10533 10536
10518 10513 10508 10502 10496 10491 10485 10478 10472 10468 10465 10461 10457 10451 10445 10439 10435 10430 10425 10420 10414 10409 10403 10398 10392 10386 10380 10375 10370 10364 10360 10356 10353 10350 10347 10345 10343 10340 10337 10335 10333 10332 10331 10330 10331 10333 10336 10338 10341 10342 10344 10347 10350 10353 10358 10363 10367 10371 10377 10382 10387 10393 10399 10405 10410 10415 10419 10424 10432 10440 10448 10455 10461 10467 10474 10481 10487 10492 10498 10503 10508 10513 10518 10522 10526 10529 10532
10516 10511 10506 10501 10495 10490 10484 10478 10471 10466 10462 10459 10456 10451 10445 10439 10434 10430 10425 10420 10415 10410 10405 10399 10394 10388 10383 10377 10372 10367 10362 10359 10355 10352 10350 10348 10346 10344 10342 10340 10338 10336 10335 10334 10334 10336 10339 10342 10344 10346 10347 10350 10352 10356 10360 10365 10369 10372 10376 10381 10387 10393 10399 10405 10409 10413 10417 10424 10432 10439 10446 10452 10457 10464 10470 10477 10483 10488 10494 10499 10504 10510 10514 10518 10522 10525 10529
10513 10508 10504 10499 10493 10488 10483 10477 10471 10465 10459 10457 10454 10451 10445 10439 10433 10428 10424 10420 10416 10411 10406 10401 10395 10390 10385 10379 10374 10369 10365 10361 10358 10355 10352 10350 10349 10347 10346 10344 10342 10341 10340 10339 10338 10338 10341 10344 10347 10349 10351 10353 10355 10359 10362 10366 10370 10373 10376 10380 10386 10392 10399 10404 10408 10412 10417 10425 10431 10437 10443 10448 10454 10461 10469 10475 10480 10484 10490 10496 10501 10506 10510 10514 10518 10522 10525
10509 10505 10501 10496 10491 10486 10481 10476 10470 10464 10458 10453 10451 10449 10445 10439 10432 10427 10423 10419 10415 10411 10406 10401 10397 10391 10386 10381 10376 10371 10367 10363 10360 10357 10355 10353 10352 10350 10349 10348 10347 10345 10344 10344 10343 10342 10343 10345 10348 10351 10353 10355 10358 10361 10364 10367 10371 10375 10378 10382 10387 10393 10399 10404 10408 10412 10418 10424 10430 10436 10442 10447 10453 10459 10466 10471 10475 10480 10486 10492 10497 10502 10506 10510 10514 10516 10520
10505 10501 10497 10493 10488 10484 10479 10474 10469 10463 10457 10451 10447 10446 10444 10439 10432 10426 10421 10417 10413 10410 10405 10401 10397 10392 10388 10383 10378 10373 10368 10364 10361 10359 10357 10355 10354 10353 10352 10351 10351 10350 10348 10347 10348 10347 10346 10346 10349 10352 10354 10357 10359 10362 10365 10368 10372 10375 10379 10383 10388 10393 10398 10403 10407 10411 10416 10422 10429 10435 10441 10446 10452 10457 10462 10466 10470 10476 10482 10488 10493 10498 10501 10505 10509 10512 10515
10501 10497 10492 10488 10484 10480 10476 10472 10466 10461 10456 10450 10445 10441 10439 10437 10432 10426 10420 10415 10411 10408 10405 10400 10396 10392 10388 10384 10379 10375 10370 10366 10362 10360 10358 10357 10356 10355 10354 10353 10354 10353 10352 10350 10351 10351 10351 10350 10351 10353 10355 10358 10360 10362 10365 10369 10372 10376 10379 10383 10387 10391 10396 10401 10405 10410 10416 10422 10427 10433 10439 10444 10449 10453 10458 10463 10467 10473 10479 10484 10488 10492 10496 10500 10504 10507 10510
10496 10492 10487 10483 10479 10476 10473 10469 10464 10458 10454 10449 10444 10438 10434 10432 10430 10424 10419 10413 10408 10405 10403 10399 10395 10392 10388 10384 10381 10376 10372 10368 10364 10361 10359 10358 10357 10357 10356 10355 10355 10355 10355 10354 10353 10353 10354 10354 10354 10355 10356 10358 10360 10363 10366 10369 10372 10375 10379 10383 10387 10391 10395 10399 10403 10408 10415 10420 10426 10431 10436 10440 10444 10449 10454 10459 10464 10469 10475 10478 10482 10486 10491 10495 10498 10501 10505
10490 10486 10482 10478 10474 10471 10468 10465 10460 10456 10450 10445 10441 10436 10431 10427 10425 10421 10417 10412 10406 10402 10400 10398 10394 10391 10388 10384 10381 10377 10373 10369 10365 10362 10360 10359 10358 10358 10357 10357 10357 10357 10357 10357 10356 10356 10356 10357 10357 10357 10358 10359 10361 10363 10365 10368 10372 10375 10378 10382 10386 10390 10395 10399 10402 10407 10412 10418 10422 10428 10433 10437 10441 10445 10450 10455 10459 10464 10469 10474 10477 10481 10485 10489 10493 10496 10499
10484 10480 10476 10472 10469 10465 10463 10460 10456 10452 10447 10441 10437 10433 10428 10423 10419 10416 10413 10409 10405 10399 10396 10395 10392 10389 10386 10383 10380 10377 10374 10370 10366 10363 10361 10359 10358 10358 10358 10357 10357 10357 10358 10358 10358 10357 10358 10359 10359 10359 10360 10360 10361 10363 10365 10368 10371 10374 10378 10382 10385 10389 10393 10397 10401 10405 10410 10414 10419 10424 10429 10433 10438 10442 10446 10450 10454 10458 10464 10468 10471 10475 10480 10484 10487 10490 10493
10478 10474 10470 10466 10464 10460 10457 10454 10451 10448 10443 10437 10431 10428 10425 10419 10415 10410 10407 10404 10402 10397 10393 10391 10389 10387 10384 10382 10379 10377 10374 10370 10366 10364 10361 10359 10358 10358 10358 10357 10357 10357 10358 10358 10358 10358 10358 10359 10360 10361 10361 10362 10362 10363 10365 10367 10369 10372 10376 10380 10383 10387 10391 10395 10399 10403 10407 10411 10416 10421 10426 10430 10433 10437 10441 10445 10449 10453 10458 10462 10465 10470 10474 10478 10482 10485 10488
10471 10468 10464 10461 10458 10455 10451 10447 10444 10442 10438 10433 10426 10422 10419 10415 10411 10407 10402 10398 10397 10394 10390 10386 10385 10384 10382 10379 10377 10375 10373 10370 10366 10363 10361 10359 10358 10357 10357 10357 10357 10357 10357 10358 10358 10359 10359 10359 10360 10361 10361 10362 10363 10364 10366 10367 10369 10371 10374 10377 10380 10384 10388 10392 10396 10400 10405 10409 10413 10418 10422 10425 10429 10433 10437 10441 10445 10449 10453 10457 10461 10465 10469 10473 10477 10480 10483
10465 10462 10458 10455 10452 10449 10445 10441 10437 10435 10432 10428 10422 10416 10413 10409 10405 10401 10398 10393 10390 10390 10387 10383 10381 10380 10379 10377 10375 10373 10371 10369 10366 10363 10360 10359 10358 10357 10356 10356 10356 10357 10357 10358 10358 10359 10359 10359 10360 10361 10362 10362 10363 10365 10367 10368 10370 10371 10373 10375 10378 10381 10384 10388 10392 10397 10401 10406 10410 10414 10418 10421 10425 10429 10433 10436 10440 10444 10448 10453 10457 10461 10465 10469 10472 10476 10479
10459 10456 10453 10449 10446 10442 10438 10434 10431 10428 10426 10423 10417 10411 10406 10403 10399 10395 10393 10389 10385 10384 10383 10380 10377 10376 10375 10373 10371 10370 10369 10367 10365 10362 10359 10357 10356 10356 10355 10355 10355 10355 10356 10357 10358 10359 10359 10359 10360 10361 10361 10362 10363 10364 10366 10368 10369 10371 10373 10375 10377 10379 10382 10385 10388 10392 10396 10401 10405 10409 10414 10417 10421 10425 10428 10432 10435 10440 10444 10449 10453 10457 10461 10464 10468 10471 10474
10451 10449 10446 10443 10439 10436 10432 10428 10424 10421 10419 10416 10412 10405 10400 10397 10393 10389 10386 10384 10381 10378 10377 10376 10374 10372 10371 10369 10367 10366 10366 10364 10363 10361 10359 10356 10355 10354 10354 10354 10353 10354 10355 10356 10357 10358 10358 10359 10360 10360 10361 10362 10363 10364 10366 10367 10368 10370 10371 10373 10375 10377 10379 10382 10385 10388 10392 10396 10399 10404 10409 10412 10416 10419 10423 10426 10430 10435 10440 10444 10448 10452 10455 10459 10462 10466 10469
10444 10441 10439 10436 10433 10429 10426 10422 10418 10415 10412 10409 10405 10400 10394 10389 10386 10383 10379 10377 10375 10372 10371 10371 10369 10368 10367 10366 10363 10362 10362 10361 10360 10359 10357 10355 10353 10352 10352 10352 10352 10352 10353 10354 10355 10356 10357 10358 10359 10360 10361 10361 10362 10364 10365 10367 10368 10369 10370 10372 10373 10375 10378 10381 10383 10386 10388 10391 10394 10398 10402 10406 10409 10412 10417 10420 10424 10429 10433 10437 10441 10445 10449 10453 10457 10461 10464
10436 10434 10432 10429 10426 10423 10420 10416 10411 10408 10405 10401 10398 10394 10388 10383 10379 10376 10373 10371 10369 10367 10365 10365 10365 10363 10363 10362 10360 10358 10357 10357 10357 10356 10355 10353 10351 10350 10350 10350 10350 10350 10350 10351 10352 10353 10355 10356 10357 10358 10360 10361 10362 10363 10364 10366 10368 10369 10369 10371 10372 10375 10377 10380 10382 10384 10386 10389 10392 10395 10398 10402 10405 10409 10412 10416 10420 10424 10429 10433 10437 10441 10445 10449 10453 10457 10460
10429 10427 10425 10422 10419 10416 10413 10410 10405 10401 10398 10395 10390 10386 10382 10377 10373 10370 10367 10365 10363 10361 10358 10358 10358 10358 10358 10357 10356 10354 10352 10352 10353 10352 10351 10350 10349 10348 10347 10347 10347 10347 10347 10348 10349 10351 10352 10354 10356 10357 10358 10360 10361 10362 10364 10365 10367 10369 10370 10371 10372 10375 10377 10379 10381 10383 10385 10387 10390 10392 10395 10399 10402 10406 10409 10413 10417 10421 10426 10430 10434 10438 10441 10445 10449 10452 10455
10423 10420 10417 10414 10412 10409 10406 10403 10398 10394 10391 10388 10383 10378 10374 10370 10366 10363 10361 10359 10357 10355 10353 10351 10351 10352 10352 10352 10351 10350 10348 10347 10347 10348 10347 10346 10345 10345 10344 10344 10344 10344 10344 10345 10346 10348 10349 10351 10353 10355 10356 10357 10359 10361 10363 10364 10366 10367 10369 10370 10372 10374 10376 10378 10380 10382 10384 10386 10388 10390 10393 10396 10399 10403 10406 10410 10414 10418 10423 10427 10431 10435 10438 10442 10445 10447 10449
10416 10413 10410 10407 10404 10401 10398 10395 10390 10386 10383 10380 10376 10371 10366 10362 10358 10355 10354 10352 10351 10349 10347 10345 10344 10345 10346 10346 10346 10345 10343 10342 10342 10342 10342 10342 10341 10341 10340 10340 10340 10341 10341 10342 10343 10344 10345 10347 10350 10352 10354 10356 10357 10359 10361 10363 10364 10366 10368 10369 10371 10373 10375 10377 10379 10381 10383 10385 10387 10389 10392 10395 10398 10401 10404 10408 10411 10415 10419 10423 10427 10430 10433 10436 10439 10441 10443
10409 10407 10403 10399 10396 10393 10389 10386 10382 10378 10374 10371 10368 10364 10359 10355 10351 10348 10346 10345 10344 10343 10342 10340 10338 10337 10339 10340 10340 10339 10338 10337 10336 10336 10336 10336 10337 10336 10336 10336 10336 10337 10337 10338 10338 10339 10341 10344 10346 10349 10351 10353 10355 10356 10358 10360 10362 10364 10366 10368 10370 10373 10374 10376 10378 10380 10382 10385 10387 10389 10391 10394 10397 10399 10402 10405 10408 10411 10414 10417 10420 10423 10427 10430 10432 10435 10438
10401 10398 10394 10390 10387 10383 10380 10377 10373 10369 10365 10362 10359 10355 10352 10348 10345 10342 10339 10338 10337 10336 10336 10334 10332 10331 10331 10334 10334 10333 10332 10332 10331 10330 10329 10330 10331 10331 10331 10331 10331 10332 10333 10333 10334 10336 10338 10340 10342 10345 10348 10350 10351 10353 10355 10357 10360 10363 10365 10366 10368 10370 10372 10374 10376 10379 10381 10383 10385 10387 10390 10392 10395 10397 10400 10402 10405 10407 10410 10413 10416 10419 10423 10426 10429 10432 10435
10393 10389 10385 10381 10377 10373 10371 10368 10364 10360 10357 10354 10351 10347 10344 10340 10338 10336 10334 10332 10331 10330 10329 10328 10327 10325 10325 10326 10328 10327 10326 10325 10325 10324 10323 10324 10324 10325 10326 10326 10326 10326 10328 10329 10330 10332 10333 10336 10339 10341 10343 10346 10348 10350 10352 10354 10357 10360 10362 10364 10366 10368 10370 10372 10375 10377 10379 10381 10383 10386 10388 10390 10393 10395 10398 10400 10403 10406 10408 10411 10414 10417 10420 10423 10426 10429 10432
10385 10381 10376 10372 10368 10365 10362 10359 10355 10352 10349 10346 10343 10340 10336 10333 10330 10329 10327 10326 10325 10323 10322 10321 10320 10319 10319 10319 10320 10320 10319 10318 10318 10317 10317 10318 10318 10318 10319 10320 10320 10321 10322 10324 10325 10327 10329 10332 10335 10337 10339 10342 10344 10346 10348 10351 10354 10356 10358 10360 10362 10365 10368 10370 10373 10375 10377 10379 10381 10383 10386 10388 10390 10393 10395 10398 10401 10403 10406 10409 10412 10414 10417 10420 10423 10426 10428
10377 10373 10368 10364 10360 10358 10355 10351 10347 10344 10341 10338 10335 10332 10329 10326 10324 10321 10320 10319 10318 10317 10316 10314 10313 10314 10313 10311 10311 10312 10312 10311 10311 10310 10310 10311 10311 10311 10312 10313 10313 10315 10317 10318 10319 10321 10324 10327 10329 10332 10335 10337 10338 10342 10346 10349 10350 10351 10354 10356 10359 10363 10365 10368 10370 10372 10374 10376 10378 10380 10383 10385 10388 10390 10393 10395 10398 10400 10403 10406 10409 10412 10414 10417 10420 10422 10424
10368 10364 10360 10356 10353 10351 10347 10343 10339 10336 10333 10329 10326 10324 10322 10319 10317 10315 10313 10312 10310 10309 10308 10307 10306 10307 10306 10302 10301 10303 10304 10303 10303 10302 10302 10303 10303 10303 10304 10306 10307 10309 10310 10311 10313 10316 10319 10321 10324 10327 10329 10331 10334 10339 10343 10344 10345 10347 10350 10353 10356 10359 10361 10363 10365 10367 10370 10372 10374 10377 10380 10382 10385 10387 10389 10392 10394 10397 10400 10403 10406 10409 10411 10413 10416 10418 10420
10360 10356 10352 10348 10346 10343 10340 10335 10331 10327 10324 10321 10318 10316 10314 10312 10310 10308 10306 10304 10302 10301 10300 10298 10297 10298 10297 10293 10292 10295 10296 10294 10294 10294 10294 10295 10296 10297 10297 10299 10301 10302 10303 10305 10309 10312 10314 10316 10318 10320 10322 10325 10330 10335 10337 10338 10340 10343 10346 10348 10352 10354 10357 10359 10361 10363 10366 10368 10371 10373 10376 10379 10381 10383 10385 10387 10390 10393 10396 10399 10402 10405 10407 10409 10411 10413 10414
10352 10348 10344 10341 10338 10335 10332 10328 10323 10319 10316 10313 10310 10308 10306 10304 10302 10300 10298 10296 10294 10293 10291 10289 10288 10289 10288 10284 10284 10287 10287 10285 10285 10286 10286 10287 10289 10289 10290 10292 10294 10295 10297 10300 10303 10306 10308 10310 10313 10315 10318 10321 10326 10329 10330 10332 10335 10338 10340 10344 10348 10351 10353 10355 10357 10359 10361 10363 10366 10368 10371 10374 10377 10379 10381 10383 10386 10389 10392 10394 10397 10399 10401 10403 10405 10406 10408
10345 10341 10336 10333 10330 10327 10324 10320 10316 10312 10308 10305 10302 10300 10298 10295 10294 10292 10289 10287 10285 10284 10282 10280 10279 10279 10278 10275 10276 10278 10278 10275 10276 10279 10279 10279 10281 10282 10282 10284 10287 10289 10291 10294 10297 10299 10302 10305 10308 10310 10313 10316 10320 10322 10324 10326 10329 10332 10336 10340 10344 10347 10349 10351 10352 10354 10356 10358 10361 10364 10367 10370 10372 10374 10376 10378 10381 10384 10386 10389 10391 10392 10395 10397 10399 10401 10402
10337 10333 10329 10325 10322 10318 10315 10312 10308 10304 10300 10297 10294 10291 10289 10287 10285 10283 10280 10278 10277 10275 10273 10271 10270 10270 10269 10267 10268 10270 10269 10267 10268 10271 10271 10270 10272 10274 10275 10278 10281 10283 10285 10288 10291 10293 10296 10300 10302 10304 10307 10310 10313 10315 10317 10321 10324 10328 10332 10336 10339 10341 10344 10346 10348 10350 10352 10354 10357 10360 10363 10365 10367 10369 10371 10374 10377 10379 10381 10383 10385 10387 10389 10391 10392 10394 10395
10329 10325 10320 10316 10313 10309 10306 10303 10300 10296 10292 10289 10286 10283 10280 10278 10276 10274 10272 10270 10268 10265 10264 10263 10262 10261 10261 10260 10260 10261 10260 10259 10260 10262 10262 10263 10264 10266 10269 10272 10275 10276 10279 10282 10285 10288 10291 10294 10296 10298 10302 10305 10307 10309 10312 10316 10320 10325 10328 10331 10333 10335 10338 10341 10343 10346 10349 10351 10353 10356 10358 10361 10363 10365 10367 10370 10372 10374 10376 10377 10379 10381 10383 10384 10385 10386 10388
10320 10316 10312 10308 10304 10301 10297 10295 10291 10287 10284 10281 10278 10275 10272 10270 10268 10265 10263 10261 10259 10256 10255 10255 10254 10253 10253 10252 10252 10253 10253 10252 10253 10254 10255 10255 10258 10260 10264 10267 10269 10270 10273 10277 10279 10281 10284 10287 10289 10293 10297 10300 10301 10304 10307 10311 10316 10320 10323 10325 10328 10330 10333 10336 10338 10341 10344 10346 10348 10351 10353 10355 10357 10359 10362 10364 10366 10368 10370 10371 10373 10375 10376 10377 10378 10379 10381
10311 10307 10304 10300 10296 10292 10289 10286 10283 10280 10276 10273 10270 10267 10264 10262 10260 10257 10255 10252 10250 10249 10248 10248 10247 10246 10245 10245 10245 10245 10245 10244 10245 10247 10248 10249 10251 10255 10258 10260 10262 10265 10268 10271 10272 10275 10278 10280 10283 10287 10291 10293 10295 10298 10302 10306 10310 10314 10317 10320 10323 10325 10328 10330 10332 10335 10338 10340 10342 10344 10346 10349 10351 10354 10356 10358 10360 10361 10363 10365 10366 10368 10370 10371 10372 10373 10373
10302 10299 10295 10291 10288 10284 10281 10278 10275 10272 10269 10265 10262 10260 10257 10254 10252 10250 10247 10244 10243 10242 10241 10240 10240 10239 10239 10238 10238 10238 10238 10238 10240 10241 10242 10243 10246 10250 10252 10253 10256 10260 10263 10264 10266 10269 10272 10274 10278 10282 10285 10287 10291 10294 10298 10302 10305 10308 10312 10314 10317 10319 10321 10324 10326 10329 10331 10333 10335 10337 10340 10342 10345 10347 10350 10351 10353 10355 10357 10358 10360 10362 10363 10364 10365 10365 10366
10293 10290 10287 10283 10279 10276 10273 10270 10267 10265 10262 10258 10255 10252 10250 10247 10245 10242 10240 10237 10236 10235 10234 10233 10233 10232 10232 10232 10232 10231 10232 10233 10233 10234 10235 10238 10241 10244 10245 10247 10251 10255 10257 10259 10260 10263 10266 10269 10274 10277 10281 10283 10286 10290 10293 10297 10300 10303 10306 10308 10310 10312 10315 10317 10320 10322 10325 10327 10329 10331 10333 10336 10338 10341 10343 10345 10347 10348 10350 10351 10353 10355 10356 10357 10357 10358 10358
10285 10282 10279 10275 10272 10269 10266 10263 10260 10258 10255 10251 10248 10245 10243 10240 10238 10236 10233 10231 10230 10229 10228 10227 10227 10226 10226 10226 10226 10226 10226 10227 10228 10229 10230 10232 10235 10237 10240 10243 10247 10250 10252 10253 10255 10258 10262 10266 10269 10273 10276 10279 10281 10284 10288 10291 10294 10296 10299 10301 10304 10307 10309 10312 10314 10316 10318 10320 10323 10325 10327 10329 10331 10334 10336 10338 10340 10341 10342 10344 10345 10347 10348 10349 10350 10351 10352
10277 10274 10271 10268 10265 10262 10258 10255 10254 10252 10248 10244 10241 10239 10237 10234 10232 10229 10227 10226 10224 10223 10222 10221 10221 10220 10220 10220 10220 10220 10221 10222 10223 10224 10225 10227 10230 10233 10235 10239 10242 10244 10246 10248 10250 10254 10258 10262 10265 10268 10271 10273 10276 10279 10282 10285 10287 10290 10293 10295 10298 10301 10303 10306 10308 10310 10312 10314 10316 10318 10320 10323 10325 10327 10329 10331 10332 10334 10335 10336 10337 10339 10340 10342 10343 10344 10345
10269 10266 10263 10260 10258 10254 10251 10249 10247 10245 10241 10238 10235 10233 10231 10228 10226 10223 10222 10220 10219 10217 10216 10216 10215 10215 10215 10215 10214 10215 10216 10216 10217 10218 10220 10223 10226 10229 10231 10233 10235 10238 10241 10244 10247 10251 10254 10256 10259 10262 10265 10268 10271 10274 10276 10279 10282 10284 10286 10289 10291 10294 10296 10299 10301 10303 10305 10307 10309 10311 10314 10316 10318 10320 10322 10323 10325 10326 10327 10328 10329 10331 10333 10334 10336 10337 10338
10261 10258 10257 10254 10251 10247 10245 10243 10241 10238 10235 10231 10228 10227 10225 10223 10220 10218 10217 10215 10213 10212 10211 10210 10210 10210 10209 10209 10209 10210 10210 10211 10212 10213 10215 10218 10221 10224 10225 10227 10230 10234 10237 10241 10244 10246 10248 10250 10253 10257 10260 10263 10266 10269 10271 10274 10276 10279 10281 10283 10286 10288 10290 10292 10294 10296 10298 10300 10302 10304 10306 10308 10310 10312 10314 10316 10318 10319 10320 10321 10322 10323 10325 10327 10328 10329 10330
10253 10251 10250 10248 10244 10240 10238 10237 10234 10231 10229 10225 10222 10221 10219 10217 10214 10213 10212 10210 10208 10207 10206 10205 10204 10204 10204 10203 10204 10205 10205 10206 10207 10209 10210 10213 10216 10218 10220 10223 10227 10231 10234 10237 10239 10240 10242 10245 10248 10252 10256 10259 10262 10265 10267 10270 10272 10274 10276 10278 10280 10282 10284 10286 10288 10290 10292 10293 10295 10297 10298 10300 10302 10304 10306 10308 10310 10311 10312 10313 10314 10315 10317 10319 10320 10321 10322
10246 10243 10243 10241 10237 10233 10232 10231 10228 10225 10223 10220 10217 10215 10214 10211 10209 10208 10206 10204 10203 10202 10201 10200 10199 10199 10199 10199 10199 10200 10200 10201 10203 10204 10206 10208 10211 10213 10215 10219 10223 10227 10230 10232 10233 10235 10237 10240 10244 10248 10252 10256 10258 10260 10263 10265 10267 10269 10271 10273 10275 10277 10279 10280 10282 10284 10285 10287 10288 10290 10291 10293 10294 10296 10298 10300 10301 10303 10304 10305 10306 10308 10309 10310 10311 10312 10313